When you browse on this site, cookies collect data to enhance your experience and personalize the content and advertising you see.
Visit our Privacy Policy to learn more. By continuing to use the site, you agree to this use of cookies and data.
  • In France
  • List of Countries
  • For 7 days
  • Water Temperature
  • Weather Map
  • Weather Widgets
  • user-avatar
    Login

    Hourly Weather Garoua

    Today, 6 April, Monday

    Time Temperature Precipitation Wind Pressure Humidity
    00:00 +34°C° 0 mm 1 mps 739 mmHg 37%
    01:00 +33°C° 0 mm 1 mps 739 mmHg 46%
    02:00 +32°C° 0 mm 1 mps 739 mmHg 49%
    03:00 +32°C° 0 mm 2 mps 739 mmHg 52%
    04:00 +32°C° 0 mm 2 mps 739 mmHg 55%
    05:00 +32°C° 0 mm 1 mps 739 mmHg 56%
    06:00 +32°C° 0 mm 1 mps 740 mmHg 56%
    07:00 +32°C° 0 mm 1 mps 740 mmHg 57%
    08:00 +35°C° 0 mm 2 mps 740 mmHg 49%
    09:00 +38°C° 0 mm 3 mps 741 mmHg 42%
    10:00 +41°C° 0 mm 4 mps 741 mmHg 34%
    11:00 +44°C° 0 mm 3 mps 740 mmHg 29%
    12:00 +46°C° 0 mm 3 mps 740 mmHg 23%
    13:00 +48°C° 0 mm 2 mps 739 mmHg 18%
    14:00 +47°C° 0.1 mm 3 mps 738 mmHg 19%
    15:00 +45°C° 0.1 mm 4 mps 737 mmHg 21%
    16:00 +45°C° 0.1 mm 5 mps 736 mmHg 22%
    17:00 +42°C° 0 mm 4 mps 737 mmHg 24%
    18:00 +40°C° 0 mm 2 mps 737 mmHg 25%
    19:00 +37°C° 0 mm 1 mps 738 mmHg 27%
    20:00 +36°C° 0 mm 1 mps 739 mmHg 31%
    21:00 +36°C° 0 mm 2 mps 739 mmHg 34%
    22:00 +35°C° 0 mm 2 mps 740 mmHg 38%
    23:00 +34°C° 0 mm 2 mps 739 mmHg 43%

    Tomorrow, 7 April, Tuesday

    Time Temperature Precipitation Wind Pressure Humidity
    00:00 +32°C° 0 mm 1 mps 739 mmHg 47%
    01:00 +31°C° 0 mm 1 mps 739 mmHg 52%
    02:00 +31°C° 0 mm 1 mps 739 mmHg 54%
    03:00 +28°C° 0 mm 0 mps 739 mmHg 56%
    04:00 +28°C° 0 mm 0 mps 738 mmHg 58%
    05:00 +30°C° 0 mm 1 mps 739 mmHg 57%
    06:00 +31°C° 0 mm 1 mps 739 mmHg 55%
    07:00 +31°C° 0 mm 1 mps 740 mmHg 54%
    08:00 +35°C° 0 mm 2 mps 740 mmHg 47%
    09:00 +37°C° 0 mm 2 mps 741 mmHg 40%
    10:00 +40°C° 0 mm 2 mps 741 mmHg 33%
    11:00 +42°C° 0 mm 2 mps 740 mmHg 28%
    12:00 +45°C° 0 mm 2 mps 739 mmHg 24%
    13:00 +47°C° 0 mm 2 mps 738 mmHg 20%
    14:00 +47°C° 0 mm 3 mps 738 mmHg 19%
    15:00 +47°C° 0 mm 3 mps 737 mmHg 19%
    16:00 +47°C° 0 mm 3 mps 736 mmHg 18%
    17:00 +43°C° 0.1 mm 4 mps 737 mmHg 24%
    18:00 +40°C° 0.1 mm 4 mps 738 mmHg 29%
    19:00 +36°C° 0.1 mm 5 mps 738 mmHg 35%
    20:00 +34°C° 0.9 mm 5 mps 739 mmHg 40%
    21:00 +33°C° 0.9 mm 5 mps 740 mmHg 45%
    22:00 +32°C° 0.9 mm 5 mps 741 mmHg 51%
    23:00 +32°C° 0 mm 4 mps 740 mmHg 52%

    Day after tomorrow, 8 April, Wednesday

    Time Temperature Precipitation Wind Pressure Humidity
    00:00 +32°C° 0 mm 4 mps 740 mmHg 53%
    01:00 +31°C° 0 mm 3 mps 740 mmHg 55%
    02:00 +31°C° 0 mm 2 mps 739 mmHg 57%
    03:00 +30°C° 0 mm 2 mps 739 mmHg 60%
    04:00 +30°C° 0 mm 1 mps 739 mmHg 62%
    05:00 +30°C° 0 mm 1 mps 739 mmHg 61%
    06:00 +30°C° 0 mm 1 mps 739 mmHg 60%
    07:00 +29°C° 0 mm 0 mps 740 mmHg 59%
    08:00 +33°C° 0 mm 1 mps 740 mmHg 51%
    09:00 +37°C° 0 mm 2 mps 740 mmHg 42%
    10:00 +39°C° 0 mm 2 mps 740 mmHg 34%
    11:00 +41°C° 0 mm 2 mps 739 mmHg 29%
    12:00 +43°C° 0 mm 3 mps 739 mmHg 25%
    13:00 +45°C° 0 mm 3 mps 738 mmHg 21%
    14:00 +45°C° 0 mm 3 mps 737 mmHg 20%
    15:00 +45°C° 0 mm 3 mps 737 mmHg 19%
    16:00 +46°C° 0 mm 3 mps 736 mmHg 18%
    17:00 +44°C° 0 mm 3 mps 736 mmHg 21%
    18:00 +41°C° 0 mm 2 mps 737 mmHg 23%
    19:00 +39°C° 0 mm 2 mps 737 mmHg 26%
    20:00 +37°C° 0 mm 2 mps 738 mmHg 32%
    21:00 +35°C° 0 mm 2 mps 738 mmHg 39%
    22:00 +32°C° 0 mm 2 mps 739 mmHg 46%
    23:00 +32°C° 0 mm 1 mps 739 mmHg 46%

    9 April, Thursday

    Time Temperature Precipitation Wind Pressure Humidity
    00:00 +32°C° 0 mm 1 mps 739 mmHg 47%
    01:00 +31°C° 0 mm 1 mps 739 mmHg 47%
    02:00 +31°C° 0 mm 1 mps 739 mmHg 48%
    03:00 +31°C° 0 mm 1 mps 739 mmHg 50%
    04:00 +31°C° 0 mm 1 mps 739 mmHg 51%
    05:00 +31°C° 0 mm 1 mps 739 mmHg 50%
    06:00 +31°C° 0 mm 1 mps 740 mmHg 50%
    07:00 +32°C° 0 mm 1 mps 740 mmHg 49%
    08:00 +33°C° 0.2 mm 1 mps 741 mmHg 46%
    09:00 +35°C° 0.2 mm 1 mps 741 mmHg 42%
    10:00 +37°C° 0.2 mm 2 mps 742 mmHg 38%
    11:00 +39°C° 0 mm 2 mps 741 mmHg 34%
    12:00 +41°C° 0 mm 2 mps 740 mmHg 30%
    13:00 +43°C° 0 mm 2 mps 739 mmHg 25%
    14:00 +43°C° 0 mm 1 mps 738 mmHg 24%
    15:00 +44°C° 0 mm 1 mps 738 mmHg 22%
    16:00 +44°C° 0 mm 1 mps 737 mmHg 20%
    17:00 +42°C° 0 mm 1 mps 738 mmHg 24%
    18:00 +40°C° 0 mm 2 mps 738 mmHg 27%
    19:00 +39°C° 0 mm 2 mps 738 mmHg 31%
    20:00 +37°C° 0.5 mm 3 mps 739 mmHg 37%
    21:00 +36°C° 0.5 mm 3 mps 740 mmHg 44%
    22:00 +34°C° 0.5 mm 4 mps 741 mmHg 51%
    23:00 +34°C° 0.4 mm 3 mps 740 mmHg 52%

    10 April, Friday

    Time Temperature Precipitation Wind Pressure Humidity
    00:00 +33°C° 0.4 mm 3 mps 740 mmHg 53%
    01:00 +32°C° 0.4 mm 2 mps 740 mmHg 54%
    02:00 +31°C° 0 mm 2 mps 740 mmHg 55%
    03:00 +31°C° 0 mm 2 mps 740 mmHg 56%
    04:00 +31°C° 0 mm 3 mps 739 mmHg 57%
    05:00 +31°C° 0 mm 3 mps 740 mmHg 58%
    06:00 +31°C° 0 mm 2 mps 740 mmHg 58%
    07:00 +30°C° 0 mm 2 mps 740 mmHg 59%
    08:00 +32°C° 0 mm 2 mps 741 mmHg 54%
    09:00 +34°C° 0 mm 2 mps 741 mmHg 48%
    10:00 +36°C° 0 mm 2 mps 742 mmHg 43%
    11:00 +37°C° 0 mm 2 mps 741 mmHg 40%
    12:00 +38°C° 0 mm 2 mps 741 mmHg 37%
    13:00 +39°C° 0 mm 1 mps 740 mmHg 33%
    14:00 +39°C° 0 mm 2 mps 739 mmHg 32%
    15:00 +39°C° 0 mm 2 mps 739 mmHg 31%
    16:00 +39°C° 0 mm 2 mps 738 mmHg 30%
    17:00 +38°C° 0 mm 2 mps 738 mmHg 32%
    18:00 +37°C° 0 mm 2 mps 739 mmHg 34%
    19:00 +36°C° 0 mm 2 mps 739 mmHg 36%
    20:00 +35°C° 0 mm 2 mps 739 mmHg 38%
    21:00 +35°C° 0 mm 2 mps 740 mmHg 40%
    22:00 +34°C° 0 mm 2 mps 740 mmHg 42%
    23:00 +33°C° 0 mm 1 mps 740 mmHg 44%

    11 April, Saturday

    Time Temperature Precipitation Wind Pressure Humidity
    00:00 +32°C° 0 mm 1 mps 740 mmHg 45%
    01:00 +30°C° 0 mm 0 mps 739 mmHg 47%
    02:00 +29°C° 0 mm 0 mps 739 mmHg 49%
    03:00 +28°C° 0 mm 0 mps 739 mmHg 50%
    04:00 +28°C° 0 mm 0 mps 739 mmHg 52%
    05:00 +28°C° 0 mm 0 mps 739 mmHg 51%
    06:00 +30°C° 0 mm 1 mps 740 mmHg 49%
    07:00 +30°C° 0 mm 1 mps 740 mmHg 47%
    08:00 +32°C° 0 mm 1 mps 741 mmHg 39%
    09:00 +34°C° 0 mm 1 mps 741 mmHg 32%
    10:00 +36°C° 0 mm 1 mps 742 mmHg 24%
    11:00 +39°C° 0 mm 1 mps 741 mmHg 18%
    12:00 +42°C° 0 mm 2 mps 740 mmHg 12%
    13:00 +45°C° 0 mm 2 mps 740 mmHg 7%
    14:00 +45°C° 0 mm 3 mps 739 mmHg 6%
    15:00 +45°C° 0 mm 3 mps 738 mmHg 6%
    16:00 +46°C° 0 mm 3 mps 737 mmHg 6%
    17:00 +43°C° 0 mm 3 mps 738 mmHg 9%
    18:00 +40°C° 0 mm 3 mps 738 mmHg 12%
    19:00 +38°C° 0 mm 3 mps 738 mmHg 15%
    20:00 +36°C° 0 mm 2 mps 739 mmHg 18%
    21:00 +35°C° 0 mm 2 mps 739 mmHg 20%
    22:00 +34°C° 0 mm 2 mps 740 mmHg 22%
    23:00 +32°C° 0 mm 2 mps 740 mmHg 22%
    Show more